• In Hungary
  • List of Countries
  • For 7 days
  • Water Temperature
  • Satellite Maps
  • Weather Map
  • News
  • Weather Widgets
  • user-avatar
    Login

    Hourly Weather Petropavlovsk

    Today, 19 September, Wednesday

    Time Temperature Precipitation Wind Pressure Humidity
    00:00 +9°C° 0 mm 5 mps 752 mmHg 61%
    01:00 +9°C° 0 mm 5 mps 752 mmHg 61%
    02:00 +8°C° 0 mm 5 mps 751 mmHg 62%
    03:00 +8°C° 0 mm 5 mps 751 mmHg 63%
    04:00 +8°C° 0 mm 5 mps 751 mmHg 65%
    05:00 +8°C° 0 mm 5 mps 750 mmHg 64%
    06:00 +8°C° 0 mm 6 mps 750 mmHg 64%
    07:00 +8°C° 0 mm 6 mps 750 mmHg 63%
    08:00 +9°C° 0 mm 7 mps 749 mmHg 63%
    09:00 +11°C° 0 mm 7 mps 749 mmHg 59%
    10:00 +12°C° 0 mm 7 mps 748 mmHg 55%
    11:00 +15°C° 0 mm 8 mps 748 mmHg 51%
    12:00 +16°C° 0 mm 8 mps 747 mmHg 47%
    13:00 +17°C° 0 mm 8 mps 747 mmHg 44%
    14:00 +20°C° 0 mm 8 mps 746 mmHg 40%
    15:00 +18°C° 0 mm 7 mps 746 mmHg 42%
    16:00 +19°C° 0 mm 6 mps 745 mmHg 43%
    17:00 +17°C° 0 mm 6 mps 745 mmHg 45%
    18:00 +16°C° 0 mm 6 mps 745 mmHg 44%
    19:00 +16°C° 0 mm 7 mps 744 mmHg 44%
    20:00 +15°C° 0 mm 7 mps 744 mmHg 44%
    21:00 +14°C° 0 mm 7 mps 744 mmHg 44%
    22:00 +12°C° 0 mm 7 mps 743 mmHg 45%
    23:00 +12°C° 0 mm 7 mps 743 mmHg 45%

    Tomorrow, 20 September, Thursday

    Time Temperature Precipitation Wind Pressure Humidity
    00:00 +11°C° 0 mm 7 mps 743 mmHg 46%
    01:00 +11°C° 0 mm 6 mps 742 mmHg 47%
    02:00 +10°C° 0 mm 6 mps 742 mmHg 48%
    03:00 +10°C° 0 mm 5 mps 742 mmHg 50%
    04:00 +9°C° 0 mm 5 mps 742 mmHg 52%
    05:00 +9°C° 0 mm 5 mps 742 mmHg 54%
    06:00 +10°C° 0 mm 4 mps 741 mmHg 54%
    07:00 +11°C° 0 mm 4 mps 741 mmHg 55%
    08:00 +11°C° 0 mm 4 mps 741 mmHg 55%
    09:00 +13°C° 0 mm 4 mps 741 mmHg 53%
    10:00 +16°C° 0 mm 3 mps 741 mmHg 50%
    11:00 +18°C° 0 mm 3 mps 741 mmHg 48%
    12:00 +19°C° 0 mm 3 mps 741 mmHg 47%
    13:00 +19°C° 0 mm 3 mps 741 mmHg 46%
    14:00 +20°C° 0 mm 3 mps 741 mmHg 45%
    15:00 +20°C° 0 mm 2 mps 741 mmHg 48%
    16:00 +19°C° 0 mm 2 mps 740 mmHg 51%
    17:00 +19°C° 0 mm 2 mps 740 mmHg 54%
    18:00 +18°C° 0 mm 2 mps 740 mmHg 56%
    19:00 +18°C° 0 mm 1 mps 740 mmHg 58%
    20:00 +16°C° 0 mm 1 mps 740 mmHg 60%
    21:00 +15°C° 0.1 mm 1 mps 740 mmHg 62%
    22:00 +15°C° 0.1 mm 1 mps 740 mmHg 64%
    23:00 +15°C° 0.1 mm 1 mps 740 mmHg 66%

    Day after tomorrow, 21 September, Friday

    Time Temperature Precipitation Wind Pressure Humidity
    00:00 +15°C° 0.4 mm 1 mps 739 mmHg 70%
    01:00 +14°C° 0.4 mm 1 mps 739 mmHg 74%
    02:00 +14°C° 0.4 mm 1 mps 739 mmHg 77%
    03:00 +13°C° 0.2 mm 1 mps 739 mmHg 79%
    04:00 +13°C° 0.2 mm 1 mps 738 mmHg 81%
    05:00 +13°C° 0.2 mm 1 mps 738 mmHg 82%
    06:00 +13°C° 0.1 mm 1 mps 738 mmHg 80%
    07:00 +13°C° 0.1 mm 2 mps 738 mmHg 79%
    08:00 +13°C° 0.1 mm 2 mps 738 mmHg 77%
    09:00 +14°C° 0.2 mm 2 mps 738 mmHg 77%
    10:00 +14°C° 0.2 mm 2 mps 738 mmHg 77%
    11:00 +14°C° 0.2 mm 3 mps 738 mmHg 76%
    12:00 +13°C° 1.2 mm 3 mps 738 mmHg 78%
    13:00 +13°C° 1.2 mm 3 mps 738 mmHg 79%
    14:00 +13°C° 1.2 mm 4 mps 738 mmHg 81%
    15:00 +13°C° 1.3 mm 3 mps 738 mmHg 81%
    16:00 +14°C° 1.3 mm 2 mps 738 mmHg 82%
    17:00 +13°C° 1.3 mm 2 mps 738 mmHg 83%
    18:00 +13°C° 0.8 mm 2 mps 738 mmHg 86%
    19:00 +12°C° 0.8 mm 2 mps 738 mmHg 88%
    20:00 +11°C° 0.8 mm 1 mps 738 mmHg 91%
    21:00 +10°C° 0 mm 2 mps 739 mmHg 91%
    22:00 +9°C° 0 mm 2 mps 739 mmHg 92%
    23:00 +9°C° 0 mm 2 mps 739 mmHg 92%

    22 September, Saturday

    Time Temperature Precipitation Wind Pressure Humidity
    00:00 +9°C° 0 mm 2 mps 739 mmHg 93%
    01:00 +9°C° 0 mm 2 mps 740 mmHg 93%
    02:00 +8°C° 0 mm 2 mps 740 mmHg 94%
    03:00 +8°C° 0 mm 3 mps 741 mmHg 94%
    04:00 +8°C° 0 mm 3 mps 741 mmHg 95%
    05:00 +8°C° 0 mm 3 mps 742 mmHg 96%
    06:00 +8°C° 0 mm 3 mps 742 mmHg 95%
    07:00 +9°C° 0 mm 3 mps 743 mmHg 94%
    08:00 +10°C° 0 mm 3 mps 743 mmHg 93%
    09:00 +10°C° 0.4 mm 4 mps 743 mmHg 92%
    10:00 +10°C° 0.4 mm 5 mps 744 mmHg 90%
    11:00 +10°C° 0.4 mm 5 mps 744 mmHg 89%
    12:00 +10°C° 0.7 mm 5 mps 744 mmHg 87%
    13:00 +10°C° 0.7 mm 6 mps 744 mmHg 85%
    14:00 +10°C° 0.7 mm 6 mps 745 mmHg 83%
    15:00 +10°C° 0.1 mm 6 mps 745 mmHg 84%
    16:00 +10°C° 0.1 mm 6 mps 745 mmHg 84%
    17:00 +10°C° 0.1 mm 6 mps 746 mmHg 85%
    18:00 +10°C° 0.1 mm 6 mps 746 mmHg 86%
    19:00 +9°C° 0.1 mm 5 mps 747 mmHg 87%
    20:00 +9°C° 0.1 mm 5 mps 747 mmHg 88%
    21:00 +9°C° 0 mm 5 mps 747 mmHg 89%
    22:00 +9°C° 0 mm 5 mps 747 mmHg 89%
    23:00 +9°C° 0 mm 5 mps 747 mmHg 89%

    23 September, Sunday

    Time Temperature Precipitation Wind Pressure Humidity
    00:00 +9°C° 0 mm 5 mps 747 mmHg 89%
    01:00 +8°C° 0 mm 5 mps 748 mmHg 89%
    02:00 +8°C° 0 mm 5 mps 748 mmHg 89%
    03:00 +7°C° 0 mm 5 mps 748 mmHg 90%
    04:00 +7°C° 0 mm 5 mps 748 mmHg 91%
    05:00 +7°C° 0 mm 5 mps 749 mmHg 92%
    06:00 +7°C° 0 mm 5 mps 749 mmHg 91%
    07:00 +7°C° 0 mm 5 mps 749 mmHg 89%
    08:00 +8°C° 0 mm 5 mps 750 mmHg 88%
    09:00 +9°C° 0 mm 5 mps 750 mmHg 82%
    10:00 +12°C° 0 mm 5 mps 750 mmHg 77%
    11:00 +13°C° 0 mm 5 mps 750 mmHg 71%
    12:00 +14°C° 0 mm 6 mps 750 mmHg 68%
    13:00 +14°C° 0 mm 6 mps 751 mmHg 65%
    14:00 +15°C° 0 mm 6 mps 751 mmHg 61%
    15:00 +14°C° 0 mm 5 mps 751 mmHg 63%
    16:00 +14°C° 0 mm 4 mps 751 mmHg 64%
    17:00 +14°C° 0 mm 4 mps 751 mmHg 66%
    18:00 +12°C° 0 mm 3 mps 751 mmHg 71%
    19:00 +11°C° 0 mm 3 mps 752 mmHg 77%
    20:00 +9°C° 0 mm 3 mps 752 mmHg 83%
    21:00 +9°C° 0 mm 3 mps 752 mmHg 86%
    22:00 +8°C° 0 mm 2 mps 752 mmHg 89%
    23:00 +8°C° 0 mm 2 mps 752 mmHg 92%

    24 September, Monday

    Time Temperature Precipitation Wind Pressure Humidity
    00:00 +8°C° 0 mm 2 mps 752 mmHg 92%
    01:00 +8°C° 0 mm 2 mps 752 mmHg 92%
    02:00 +9°C° 0 mm 1 mps 752 mmHg 93%
    03:00 +8°C° 0 mm 1 mps 752 mmHg 93%
    04:00 +8°C° 0 mm 1 mps 752 mmHg 93%
    05:00 +8°C° 0 mm 1 mps 752 mmHg 93%
    06:00 +9°C° 0 mm 1 mps 753 mmHg 91%
    07:00 +9°C° 0 mm 1 mps 753 mmHg 89%
    08:00 +9°C° 0 mm 0 mps 753 mmHg 87%
    09:00 +11°C° 0 mm 0 mps 753 mmHg 80%
    10:00 +13°C° 0 mm 1 mps 753 mmHg 74%
    11:00 +14°C° 0 mm 1 mps 753 mmHg 67%
    12:00 +15°C° 0 mm 1 mps 753 mmHg 64%
    13:00 +16°C° 0 mm 1 mps 753 mmHg 61%
    14:00 +18°C° 0 mm 1 mps 753 mmHg 57%
    15:00 +18°C° 0 mm 1 mps 754 mmHg 60%
    16:00 +18°C° 0 mm 1 mps 754 mmHg 63%
    17:00 +16°C° 0 mm 1 mps 754 mmHg 66%
    18:00 +14°C° 0 mm 0 mps 754 mmHg 70%
    19:00 +13°C° 0 mm 0 mps 754 mmHg 73%
    20:00 +12°C° 0 mm 0 mps 754 mmHg 77%
    21:00 +12°C° 0 mm 0 mps 754 mmHg 77%
    22:00 +13°C° 0 mm 1 mps 755 mmHg 78%
    23:00 +14°C° 0 mm 1 mps 755 mmHg 79%
    Show more